{"data":{"norad_id":63524,"epoch":"2026-09-19T19:52:02.834976Z","epoch_age_seconds":76388,"freshness":"FRESH","line1":"1 63524U 25073A   26262.82781059 -.00000074  00000+0  00000+0 0  9995","line2":"2 63524   1.3012  81.6709 0001250 172.5647 207.0214  1.00272064  5249","mean_motion":1.00272064,"eccentricity":0.000125,"inclination_deg":1.3012,"raan_deg":81.6709,"arg_perigee_deg":172.5647,"mean_anomaly_deg":207.0214,"bstar":0,"rev_number":524,"period_min":1436.0929081903,"perigee_km":35781.246165826,"apogee_km":35791.787329262,"semimajor_km":42164.653747544,"source":"CELESTRAK","updated_at":"2026-09-20T09:00:35.343687Z"}}